map of REG home
REG - Airport
Location
City:  Reggio di Calabria, Calabria, Italy
Name:Reggio Calabria Tito Minniti Airport
ICAO:LICR
IATA:REG

Details
Type:Airport (Aerodrome, Airfield)
Use:Public/Civil
Latitude:3804'16"N (38.071206)
Longitude:1539'06"E (15.651556)
Datum:WGS 1984
Elevation:96 ft (29 m)
Variation:3.59E (WMM2015v2 magnetic declination)
0.12 annual change
Runways:2
Longest:6549 × 148 ft (1996 × 45 m), paved

Time
Time Zone:UTC+1 (DST+2)
Local Time:

Weather
METAR:LICR 041350Z 36014KT 9999 TSRA FEW030CB 11/09 Q1008
TAF:LICR 041100Z 0412/0512 35010KT 9999 SCT030
TEMPO 0413/0416 4000 SHRA
TEMPO 0416/0508 3000 TSRA

Related Locations
Nearby:
Farthest:CHT: 11692 mi / 18817 km
Waitangi [Tuuta], CIT, NZ

Find:

   beyond  
but within

Other Information
Maps:
NOTAMs:
Links:
Sources:

  
  • flag of Italy
  • flag of Calabria
  

Sectional Chart

Flight Planning
at skyvector.com

Satellite Image

Google Maps Satellite view

 

Copyright © 2004-2019 Karl L. Swartz. All rights reserved.
The Great Circle Mapper name and logo are trademarks of the Great Circle Mapper.
All other trademarks mentioned herein belong to their respective owners.
Please see credits for attibutions and further copyright information.

  Follow gcmap on Facebook Follow gcmap on Twitter GCmap on LinkedIn

hCard Microformat

Geo Microformat